sat.trackr.live / text

‹ back to catalog

GPS BIIF-8 (PRN 03)

NORAD 40294 · 2014-068A

PAYLOAD ACTIVE UNKNOWN

§ Identity

Operator
Country
US
Launch date
2014-10-29
Launch site
AFETR
Launch vehicle
Mass (kg)
RCS (m²)
15.79

Purposes: earth_obs, nav

External: N2YO · Heavens-Above · Gunter

§ Orbital elements

Epoch: 2026-09-18T15:48:35.054784Z

Period
718.00 min
Inclination
57.0484°
Eccentricity
0.0066984
Mean motion
2.00557440 rev/d
Perigee alt
20,004.8 km
Apogee alt
20,360.7 km
Semi-major
26,560.9 km
B*
0.0000e+0
RAAN
27.3623°
Arg perigee
73.8716°
Mean anomaly
286.8719°
Rev number
8,708

§ Raw data

GPS BIIF-8  (PRN 03)1 40294U 14068A   26261.65873906 -.00000074  00000+0  00000+0 0  99992 40294  57.0484  27.3623 0066984  73.8716 286.8719  2.00557440 87088

JSON: /api/v1/satellites/40294 · /tle

For live sub-satellite position, see the globe view (requires WebGL).

§ Visibility from observer

Set your observer location to see the next 7 days of passes ≥ 10°. The values pass through the URL so the page stays shareable.

No JS? Fill the form by hand. The geolocation button needs JavaScript.